Time,TemperatureF,DewpointF,PressureIn,WindDirection,WindDirectionDegrees,WindSpeedMPH,WindSpeedGustMPH,Humidity,HourlyPrecipIn,Conditions,Clouds,dailyrainin,SoftwareType,DateUTC
2013-06-10 00:00:00,62.6,61.2,29.90,SW,225,6.0,26.0,95,0.00,,,0.00,VWS V14.01,2013-06-10 04:00:00,
2013-06-10 00:15:00,63.1,60.1,29.91,SW,225,6.0,21.0,90,0.00,,,0.00,VWS V14.01,2013-06-10 04:15:00,
2013-06-10 00:30:00,62.9,60.5,29.91,SW,225,4.0,18.0,92,0.00,,,0.00,VWS V14.01,2013-06-10 04:30:00,
2013-06-10 00:45:00,62.7,61.0,29.90,SW,225,4.0,16.0,94,0.00,,,0.00,VWS V14.01,2013-06-10 04:45:00,
2013-06-10 01:00:00,62.7,61.2,29.90,SW,225,2.0,16.0,95,0.00,,,0.00,VWS V14.01,2013-06-10 05:00:00,
2013-06-10 01:15:00,62.7,61.5,29.90,SW,225,2.0,17.0,96,0.03,,,0.03,VWS V14.01,2013-06-10 05:15:00,
2013-06-10 01:30:00,62.3,61.7,29.90,WSW,248,3.0,17.0,98,0.06,,,0.06,VWS V14.01,2013-06-10 05:30:00,
2013-06-10 01:45:00,62.1,61.8,29.90,SW,225,2.0,12.0,99,0.06,,,0.06,VWS V14.01,2013-06-10 05:45:00,
2013-06-10 02:00:00,62.1,61.8,29.89,SW,225,0.0,9.0,99,0.06,,,0.06,VWS V14.01,2013-06-10 06:00:00,
2013-06-10 02:15:00,62.0,62.0,29.89,SSW,202,1.0,12.0,100,0.06,,,0.06,VWS V14.01,2013-06-10 06:15:00,
2013-06-10 02:30:00,61.8,61.8,29.88,SW,225,2.0,16.0,100,0.03,,,0.06,VWS V14.01,2013-06-10 06:30:00,
2013-06-10 02:45:00,61.8,61.8,29.87,SW,225,3.0,15.0,100,0.01,,,0.07,VWS V14.01,2013-06-10 06:45:00,
2013-06-10 03:00:00,61.8,61.8,29.87,SW,225,2.0,14.0,100,0.01,,,0.07,VWS V14.01,2013-06-10 07:00:00,
2013-06-10 03:15:00,62.0,62.0,29.85,SW,225,3.0,14.0,100,0.02,,,0.08,VWS V14.01,2013-06-10 07:15:00,
2013-06-10 03:30:00,62.1,62.1,29.84,SW,225,2.0,16.0,100,0.02,,,0.08,VWS V14.01,2013-06-10 07:30:00,
2013-06-10 03:45:00,62.3,62.3,29.84,WSW,248,2.0,14.0,100,0.03,,,0.09,VWS V14.01,2013-06-10 07:45:00,
2013-06-10 04:00:00,62.3,62.3,29.83,SW,225,3.0,13.0,100,0.02,,,0.09,VWS V14.01,2013-06-10 08:00:00,
2013-06-10 04:15:00,62.1,62.1,29.83,SW,225,4.0,18.0,100,0.02,,,0.09,VWS V14.01,2013-06-10 08:15:00,
2013-06-10 04:30:00,62.1,62.1,29.83,SSW,202,3.0,15.0,100,0.04,,,0.12,VWS V14.01,2013-06-10 08:30:00,
2013-06-10 04:45:00,62.1,62.1,29.83,SW,225,1.0,15.0,100,0.05,,,0.13,VWS V14.01,2013-06-10 08:45:00,
2013-06-10 05:00:00,62.4,62.4,29.83,SW,225,3.0,13.0,100,0.06,,,0.15,VWS V14.01,2013-06-10 09:00:00,
2013-06-10 05:15:00,62.6,62.6,29.82,SW,225,2.0,14.0,100,0.10,,,0.19,VWS V14.01,2013-06-10 09:15:00,
2013-06-10 05:30:00,62.7,62.7,29.82,SW,225,2.0,14.0,100,0.15,,,0.24,VWS V14.01,2013-06-10 09:30:00,
2013-06-10 05:45:00,62.7,62.7,29.82,SW,225,3.0,17.0,100,0.13,,,0.25,VWS V14.01,2013-06-10 09:45:00,
2013-06-10 06:05:00,62.9,62.9,29.81,SW,224,4.0,4.0,100,0.12,,,0.25,VWS V14.01,2013-06-10 10:05:00,
2013-06-10 06:10:00,62.9,62.9,29.81,WSW,238,3.0,11.0,100,0.12,,,0.25,VWS V14.01,2013-06-10 10:10:00,
2013-06-10 06:15:00,62.9,62.9,29.82,SSW,206,0.0,12.0,100,0.12,,,0.25,VWS V14.01,2013-06-10 10:15:00,
2013-06-10 06:20:00,62.9,62.9,29.82,SW,220,0.0,19.0,100,0.06,,,0.25,VWS V14.01,2013-06-10 10:20:00,
2013-06-10 06:25:00,62.9,62.9,29.82,SW,233,4.0,19.0,100,0.06,,,0.25,VWS V14.01,2013-06-10 10:25:00,
2013-06-10 06:30:00,62.9,62.9,29.82,SW,224,0.0,0.0,100,0.01,,,0.25,VWS V14.01,2013-06-10 10:30:00,
2013-06-10 06:35:00,62.9,62.9,29.82,SW,234,5.0,18.0,100,0.01,,,0.25,VWS V14.01,2013-06-10 10:35:00,
2013-06-10 06:40:00,62.9,62.9,29.82,SW,219,5.0,26.0,100,0.02,,,0.26,VWS V14.01,2013-06-10 10:40:00,
2013-06-10 06:45:00,62.9,62.9,29.82,SW,225,4.0,33.0,100,0.00,,,0.01,VWS V14.01,2013-06-10 10:45:00,
2013-06-10 07:00:00,62.7,62.7,29.82,SW,225,5.0,22.0,100,0.00,,,0.01,VWS V14.01,2013-06-10 11:00:00,
2013-06-10 07:15:00,62.6,62.6,29.82,SW,225,5.0,16.0,100,0.00,,,0.01,VWS V14.01,2013-06-10 11:15:00,
2013-06-10 07:30:00,62.4,62.4,29.82,SSW,202,3.0,17.0,100,0.00,,,0.01,VWS V14.01,2013-06-10 11:30:00,
2013-06-10 07:45:00,62.6,62.6,29.82,SW,225,2.0,11.0,100,0.00,,,0.04,VWS V14.01,2013-06-10 11:45:00,
2013-06-10 08:00:00,62.7,62.7,29.82,SW,225,3.0,16.0,100,0.03,,,0.04,VWS V14.01,2013-06-10 12:00:00,
2013-06-10 08:15:00,62.9,62.9,29.83,SW,225,4.0,18.0,100,0.03,,,0.04,VWS V14.01,2013-06-10 12:15:00,
2013-06-10 08:30:00,62.9,62.9,29.83,SW,225,3.0,14.0,100,0.04,,,0.05,VWS V14.01,2013-06-10 12:30:00,
2013-06-10 08:45:00,62.9,62.9,29.83,SW,225,5.0,19.0,100,0.05,,,0.06,VWS V14.01,2013-06-10 12:45:00,
2013-06-10 09:00:00,63.1,63.1,29.83,SW,225,6.0,24.0,100,0.03,,,0.07,VWS V14.01,2013-06-10 13:00:00,
2013-06-10 09:15:00,63.2,63.2,29.84,WSW,248,3.0,15.0,100,0.03,,,0.07,VWS V14.01,2013-06-10 13:15:00,
2013-06-10 09:30:00,63.2,63.2,29.83,SW,225,2.0,16.0,100,0.03,,,0.07,VWS V14.01,2013-06-10 13:30:00,
2013-06-10 09:45:00,63.1,63.1,29.83,SW,225,4.0,16.0,100,0.02,,,0.07,VWS V14.01,2013-06-10 13:45:00,
2013-06-10 10:00:00,63.2,63.2,29.83,SW,225,3.0,15.0,100,0.01,,,0.07,VWS V14.01,2013-06-10 14:00:00,
2013-06-10 10:15:00,63.5,63.5,29.82,SW,225,4.0,19.0,100,0.00,,,0.07,VWS V14.01,2013-06-10 14:15:00,
2013-06-10 10:30:00,63.9,63.9,29.82,SW,225,6.0,19.0,100,0.00,,,0.07,VWS V14.01,2013-06-10 14:30:00,
2013-06-10 10:45:00,64.0,63.4,29.81,SW,225,5.0,18.0,98,0.00,,,0.07,VWS V14.01,2013-06-10 14:45:00,
2013-06-10 11:00:00,64.3,63.4,29.81,SW,225,4.0,15.0,97,0.00,,,0.07,VWS V14.01,2013-06-10 15:00:00,
2013-06-10 11:15:00,66.6,64.2,29.79,WSW,248,5.0,18.0,92,0.00,,,0.07,VWS V14.01,2013-06-10 15:15:00,
2013-06-10 11:30:00,68.1,65.1,29.79,WSW,248,4.0,20.0,90,0.00,,,0.07,VWS V14.01,2013-06-10 15:30:00,
2013-06-10 11:45:00,69.4,64.4,29.79,SW,225,4.0,16.0,84,0.00,,,0.07,VWS V14.01,2013-06-10 15:45:00,
2013-06-10 12:00:00,69.1,64.4,29.79,WSW,248,2.0,17.0,85,0.00,,,0.07,VWS V14.01,2013-06-10 16:00:00,
2013-06-10 12:15:00,68.3,64.0,29.79,SW,225,2.0,15.0,86,0.00,,,0.07,VWS V14.01,2013-06-10 16:15:00,
2013-06-10 12:30:00,68.6,63.9,29.78,SW,225,3.0,14.0,85,0.00,,,0.07,VWS V14.01,2013-06-10 16:30:00,
2013-06-10 12:45:00,70.6,63.8,29.75,SSW,202,3.0,17.0,79,0.00,,,0.07,VWS V14.01,2013-06-10 16:45:00,
2013-06-10 13:00:00,71.6,64.0,29.76,SW,225,4.0,15.0,77,0.00,,,0.07,VWS V14.01,2013-06-10 17:00:00,
2013-06-10 13:15:00,72.1,63.4,29.75,SW,225,4.0,17.0,74,0.00,,,0.07,VWS V14.01,2013-06-10 17:15:00,
2013-06-10 13:30:00,71.6,64.0,29.75,WSW,248,4.0,18.0,77,0.00,,,0.07,VWS V14.01,2013-06-10 17:30:00,
2013-06-10 13:45:00,72.7,64.7,29.73,SW,225,2.0,16.0,76,0.00,,,0.07,VWS V14.01,2013-06-10 17:45:00,
2013-06-10 14:00:00,71.1,63.9,29.73,SW,225,4.0,18.0,78,0.00,,,0.07,VWS V14.01,2013-06-10 18:00:00,
2013-06-10 14:15:00,73.0,65.7,29.72,SW,225,3.0,17.0,78,0.00,,,0.07,VWS V14.01,2013-06-10 18:15:00,
2013-06-10 14:30:00,72.0,64.8,29.72,SW,225,2.0,19.0,78,0.00,,,0.07,VWS V14.01,2013-06-10 18:30:00,
2013-06-10 14:45:00,70.9,64.1,29.73,WSW,248,4.0,22.0,79,0.00,,,0.07,VWS V14.01,2013-06-10 18:45:00,
2013-06-10 15:00:00,66.0,63.6,29.74,SW,225,3.0,19.0,92,0.12,,,0.19,VWS V14.01,2013-06-10 19:00:00,
2013-06-10 15:15:00,65.0,63.8,29.74,SW,225,7.0,25.0,96,0.13,,,0.20,VWS V14.01,2013-06-10 19:15:00,
2013-06-10 15:30:00,65.2,63.4,29.73,SW,225,6.0,25.0,94,0.13,,,0.20,VWS V14.01,2013-06-10 19:30:00,
2013-06-10 15:45:00,66.3,64.2,29.72,SW,225,7.0,20.0,93,0.13,,,0.20,VWS V14.01,2013-06-10 19:45:00,
2013-06-10 16:00:00,67.4,62.1,29.71,SSW,202,7.0,22.0,83,0.13,,,0.20,VWS V14.01,2013-06-10 20:00:00,
2013-06-10 16:15:00,66.4,62.1,29.72,SSW,202,3.0,18.0,86,0.01,,,0.20,VWS V14.01,2013-06-10 20:15:00,
2013-06-10 16:30:00,65.5,61.9,29.71,SW,225,2.0,14.0,88,0.00,,,0.20,VWS V14.01,2013-06-10 20:30:00,
2013-06-10 16:45:00,64.3,61.9,29.72,SSW,202,2.0,12.0,92,0.00,,,0.20,VWS V14.01,2013-06-10 20:45:00,
2013-06-10 17:00:00,63.7,62.2,29.72,SW,225,0.0,11.0,95,0.01,,,0.21,VWS V14.01,2013-06-10 21:00:00,
2013-06-10 17:15:00,64.8,63.9,29.72,SW,225,0.0,4.0,97,0.01,,,0.21,VWS V14.01,2013-06-10 21:15:00,
2013-06-10 17:30:00,65.5,61.9,29.72,SSW,202,1.0,14.0,88,0.01,,,0.21,VWS V14.01,2013-06-10 21:30:00,
2013-06-10 17:45:00,65.2,62.5,29.72,SW,225,1.0,10.0,91,0.01,,,0.21,VWS V14.01,2013-06-10 21:45:00,
2013-06-10 18:00:00,65.0,60.7,29.71,SSW,202,1.0,11.0,86,0.01,,,0.21,VWS V14.01,2013-06-10 22:00:00,
2013-06-10 18:15:00,66.0,60.3,29.69,SW,225,2.0,13.0,82,0.00,,,0.21,VWS V14.01,2013-06-10 22:15:00,
2013-06-10 18:30:00,66.3,62.3,29.69,SW,225,1.0,13.0,87,0.00,,,0.21,VWS V14.01,2013-06-10 22:30:00,
2013-06-10 18:45:00,66.4,60.7,29.70,SW,225,1.0,12.0,82,0.00,,,0.21,VWS V14.01,2013-06-10 22:45:00,
2013-06-10 19:00:00,66.4,60.4,29.70,SW,225,0.0,10.0,81,0.00,,,0.21,VWS V14.01,2013-06-10 23:00:00,
2013-06-10 19:15:00,66.1,61.5,29.72,SSW,202,4.0,20.0,85,0.00,,,0.21,VWS V14.01,2013-06-10 23:15:00,
2013-06-10 19:30:00,65.3,61.0,29.72,SSW,202,1.0,12.0,86,0.00,,,0.21,VWS V14.01,2013-06-10 23:30:00,
2013-06-10 19:45:00,64.8,60.5,29.73,SSW,202,1.0,12.0,86,0.00,,,0.21,VWS V14.01,2013-06-10 23:45:00,
2013-06-10 20:00:00,63.4,61.0,29.73,SW,225,2.0,11.0,92,0.01,,,0.22,VWS V14.01,2013-06-11 00:00:00,
2013-06-10 20:15:00,63.4,56.8,29.74,SW,225,5.0,21.0,79,0.01,,,0.22,VWS V14.01,2013-06-11 00:15:00,
2013-06-10 20:30:00,63.7,56.0,29.74,SSW,202,7.0,19.0,76,0.01,,,0.22,VWS V14.01,2013-06-11 00:30:00,
2013-06-10 20:45:00,63.9,56.6,29.75,SSW,202,7.0,17.0,77,0.01,,,0.22,VWS V14.01,2013-06-11 00:45:00,
2013-06-10 21:00:00,63.9,56.6,29.74,SSW,202,5.0,18.0,77,0.01,,,0.22,VWS V14.01,2013-06-11 01:00:00,
2013-06-10 21:15:00,63.4,57.5,29.75,SW,225,3.0,19.0,81,0.00,,,0.22,VWS V14.01,2013-06-11 01:15:00,
2013-06-10 21:30:00,62.9,57.3,29.75,WSW,248,1.0,14.0,82,0.00,,,0.22,VWS V14.01,2013-06-11 01:30:00,
2013-06-10 21:45:00,61.8,57.9,29.76,SW,225,1.0,15.0,87,0.00,,,0.22,VWS V14.01,2013-06-11 01:45:00,
2013-06-10 22:00:00,61.6,58.0,29.77,SW,225,3.0,15.0,88,0.00,,,0.22,VWS V14.01,2013-06-11 02:00:00,
2013-06-10 22:15:00,62.3,58.4,29.76,SW,225,4.0,19.0,87,0.00,,,0.22,VWS V14.01,2013-06-11 02:15:00,
2013-06-10 22:30:00,62.4,57.5,29.77,SW,225,5.0,15.0,84,0.00,,,0.22,VWS V14.01,2013-06-11 02:30:00,
2013-06-10 22:45:00,62.7,57.5,29.77,SW,225,5.0,18.0,83,0.00,,,0.22,VWS V14.01,2013-06-11 02:45:00,
2013-06-10 23:00:00,62.6,58.0,29.77,SW,225,5.0,18.0,85,0.00,,,0.22,VWS V14.01,2013-06-11 03:00:00,
2013-06-10 23:15:00,62.9,58.7,29.75,SW,225,5.0,21.0,86,0.00,,,0.22,VWS V14.01,2013-06-11 03:15:00,
2013-06-10 23:30:00,62.4,58.5,29.75,SW,225,3.0,15.0,87,0.00,,,0.22,VWS V14.01,2013-06-11 03:30:00,
2013-06-10 23:45:00,62.7,58.5,29.75,SW,225,5.0,22.0,86,0.00,,,0.22,VWS V14.01,2013-06-11 03:45:00,